Time,TemperatureF,DewpointF,PressureIn,WindDirection,WindDirectionDegrees,WindSpeedMPH,WindSpeedGustMPH,Humidity,HourlyPrecipIn,Conditions,Clouds,dailyrainin,SoftwareType,DateUTC
2013-01-02 00:04:00,50.0,45.0,30.15,NNE,15,14.0,16.8,83,0.00,,,-99.99,FreeWX 2.03,2013-01-02 06:04:00,
2013-01-02 00:09:00,50.0,45.0,30.12,NNE,32,13.0,17.2,83,0.00,,,-99.99,FreeWX 2.03,2013-01-02 06:09:00,
2013-01-02 00:14:00,50.0,45.0,30.12,NE,42,13.0,17.7,83,0.00,,,-99.99,FreeWX 2.03,2013-01-02 06:14:00,
2013-01-02 00:19:00,49.8,44.2,30.12,NE,37,15.0,21.5,81,0.00,,,-99.99,FreeWX 2.03,2013-01-02 06:19:00,
2013-01-02 00:24:00,49.8,43.5,30.12,NE,36,16.0,20.1,79,0.00,,,-99.99,FreeWX 2.03,2013-01-02 06:24:00,
2013-01-02 00:29:00,49.6,43.0,30.12,NE,45,15.0,19.5,78,0.00,,,-99.99,FreeWX 2.03,2013-01-02 06:29:00,
2013-01-02 00:34:00,49.6,43.7,30.12,NE,41,14.0,20.1,80,0.00,,,-99.99,FreeWX 2.03,2013-01-02 06:34:00,
2013-01-02 00:39:00,49.5,42.8,30.12,NE,46,15.0,19.5,78,0.00,,,-99.99,FreeWX 2.03,2013-01-02 06:39:00,
2013-01-02 00:44:00,49.3,42.8,30.12,NE,50,15.0,19.5,78,0.00,,,-99.99,FreeWX 2.03,2013-01-02 06:44:00,
2013-01-02 00:49:00,49.3,42.8,30.12,NE,53,14.0,19.0,78,0.00,,,-99.99,FreeWX 2.03,2013-01-02 06:49:00,
2013-01-02 00:54:00,49.1,42.6,30.15,NE,44,14.0,19.0,78,0.00,,,-99.99,FreeWX 2.03,2013-01-02 06:54:00,
2013-01-02 00:59:00,49.1,42.8,30.15,NE,34,14.0,19.9,79,0.00,,,-99.99,FreeWX 2.03,2013-01-02 06:59:00,
2013-01-02 01:04:00,48.9,42.1,30.15,NE,46,14.0,19.9,77,0.00,,,-99.99,FreeWX 2.03,2013-01-02 07:04:00,
2013-01-02 01:09:00,48.7,42.3,30.15,NE,51,15.0,20.1,78,0.00,,,-99.99,FreeWX 2.03,2013-01-02 07:09:00,
2013-01-02 01:14:00,48.9,42.6,30.15,NE,45,14.0,17.7,79,0.00,,,-99.99,FreeWX 2.03,2013-01-02 07:14:00,
2013-01-02 01:19:00,48.9,43.0,30.15,NE,39,13.0,15.9,80,0.00,,,-99.99,FreeWX 2.03,2013-01-02 07:19:00,
2013-01-02 01:24:00,48.9,43.3,30.15,NE,36,12.0,16.8,81,0.00,,,-99.99,FreeWX 2.03,2013-01-02 07:24:00,
2013-01-02 01:29:00,48.9,43.3,30.15,NNE,30,13.0,18.6,81,0.00,,,-99.99,FreeWX 2.03,2013-01-02 07:29:00,
2013-01-02 01:34:00,48.7,42.8,30.15,NNE,14,14.0,20.1,80,0.00,,,-99.99,FreeWX 2.03,2013-01-02 07:34:00,
2013-01-02 01:39:00,48.6,42.3,30.15,NNE,14,15.0,19.0,79,0.00,,,-99.99,FreeWX 2.03,2013-01-02 07:39:00,
2013-01-02 01:44:00,48.4,41.9,30.15,NNE,33,15.0,18.6,78,0.00,,,-99.99,FreeWX 2.03,2013-01-02 07:44:00,
2013-01-02 01:49:00,48.4,41.9,30.15,NE,44,14.0,19.0,78,0.00,,,-99.99,FreeWX 2.03,2013-01-02 07:49:00,
2013-01-02 01:54:00,48.4,42.3,30.15,NE,38,14.0,18.6,79,0.00,,,-99.99,FreeWX 2.03,2013-01-02 07:54:00,
2013-01-02 01:59:00,48.4,42.3,30.15,NNE,28,15.0,18.6,79,0.00,,,-99.99,FreeWX 2.03,2013-01-02 07:59:00,
2013-01-02 02:04:00,48.2,42.1,30.15,NNE,27,15.0,19.9,79,0.00,,,-99.99,FreeWX 2.03,2013-01-02 08:04:00,
2013-01-02 02:10:00,48.2,41.7,30.15,NE,34,16.0,20.1,78,0.00,,,-99.99,FreeWX 2.03,2013-01-02 08:10:00,
2013-01-02 02:15:00,48.2,41.7,30.15,NNE,27,16.0,20.1,78,0.00,,,-99.99,FreeWX 2.03,2013-01-02 08:15:00,
2013-01-02 02:20:00,48.0,41.2,30.15,NNE,17,16.0,21.0,77,0.00,,,-99.99,FreeWX 2.03,2013-01-02 08:20:00,
2013-01-02 02:25:00,48.2,41.7,30.18,NNE,25,15.0,19.9,78,0.00,,,-99.99,FreeWX 2.03,2013-01-02 08:25:00,
2013-01-02 02:30:00,48.0,41.5,30.18,NNE,30,14.0,19.9,78,0.00,,,-99.99,FreeWX 2.03,2013-01-02 08:30:00,
2013-01-02 02:35:00,48.0,41.5,30.18,NE,40,14.0,19.0,78,0.00,,,-99.99,FreeWX 2.03,2013-01-02 08:35:00,
2013-01-02 02:40:00,47.8,41.0,30.18,NE,51,14.0,19.5,77,0.00,,,-99.99,FreeWX 2.03,2013-01-02 08:40:00,
2013-01-02 02:45:00,47.8,40.6,30.18,NE,47,15.0,19.0,76,0.00,,,-99.99,FreeWX 2.03,2013-01-02 08:45:00,
2013-01-02 02:50:00,47.8,41.0,30.18,NE,38,15.0,19.9,77,0.00,,,-99.99,FreeWX 2.03,2013-01-02 08:50:00,
2013-01-02 02:55:00,47.7,41.2,30.18,NE,34,16.0,20.6,78,0.00,,,-99.99,FreeWX 2.03,2013-01-02 08:55:00,
2013-01-02 03:00:00,47.7,40.8,30.18,NE,38,16.0,19.9,77,0.00,,,-99.99,FreeWX 2.03,2013-01-02 09:00:00,
2013-01-02 03:05:00,47.7,40.8,30.18,NE,42,15.0,20.1,77,0.00,,,-99.99,FreeWX 2.03,2013-01-02 09:05:00,
2013-01-02 03:10:00,47.5,40.6,30.18,NE,42,16.0,22.8,77,0.00,,,-99.99,FreeWX 2.03,2013-01-02 09:10:00,
2013-01-02 03:15:00,47.7,41.2,30.18,NE,38,16.0,19.9,78,0.00,,,-99.99,FreeWX 2.03,2013-01-02 09:15:00,
2013-01-02 03:20:00,47.5,40.6,30.18,NE,34,15.0,19.9,77,0.00,,,-99.99,FreeWX 2.03,2013-01-02 09:20:00,
2013-01-02 03:25:00,47.5,40.3,30.18,NE,40,15.0,19.5,76,0.00,,,-99.99,FreeWX 2.03,2013-01-02 09:25:00,
2013-01-02 03:30:00,47.5,40.3,30.18,NE,43,15.0,19.5,76,0.00,,,-99.99,FreeWX 2.03,2013-01-02 09:30:00,
2013-01-02 03:35:00,47.5,41.0,30.18,NE,37,15.0,19.5,78,0.00,,,-99.99,FreeWX 2.03,2013-01-02 09:35:00,
2013-01-02 03:40:00,47.3,40.8,30.18,NNE,21,16.0,21.0,78,0.00,,,-99.99,FreeWX 2.03,2013-01-02 09:40:00,
2013-01-02 03:45:00,47.1,40.3,30.18,NNE,14,18.0,25.3,77,0.00,,,-99.99,FreeWX 2.03,2013-01-02 09:45:00,
2013-01-02 03:50:00,46.9,39.7,30.18,NNE,18,19.0,24.4,76,0.00,,,-99.99,FreeWX 2.03,2013-01-02 09:50:00,
2013-01-02 03:55:00,46.8,39.6,30.15,NNE,24,19.0,24.2,76,0.00,,,-99.99,FreeWX 2.03,2013-01-02 09:55:00,
2013-01-02 04:00:00,46.8,39.6,30.15,NE,35,19.0,21.9,76,0.00,,,-99.99,FreeWX 2.03,2013-01-02 10:00:00,
2013-01-02 04:05:00,46.8,39.6,30.15,NE,38,18.0,20.6,76,0.00,,,-99.99,FreeWX 2.03,2013-01-02 10:05:00,
2013-01-02 04:15:00,46.8,39.9,30.15,NE,38,14.0,17.7,77,0.00,,,-99.99,FreeWX 2.03,2013-01-02 10:15:00,
2013-01-02 04:20:00,46.9,40.5,30.15,NNE,31,12.0,15.4,78,0.00,,,-99.99,FreeWX 2.03,2013-01-02 10:20:00,
2013-01-02 04:25:00,46.9,40.8,30.18,NNE,17,13.0,19.0,79,0.00,,,-99.99,FreeWX 2.03,2013-01-02 10:25:00,
2013-01-02 04:30:00,46.8,40.3,30.18,NNE,15,14.0,18.6,78,0.00,,,-99.99,FreeWX 2.03,2013-01-02 10:30:00,
2013-01-02 04:35:00,46.8,39.9,30.18,North,352,14.0,19.5,77,0.00,,,-99.99,FreeWX 2.03,2013-01-02 10:35:00,
2013-01-02 04:40:00,46.6,39.4,30.18,North,349,15.0,21.0,76,0.00,,,-99.99,FreeWX 2.03,2013-01-02 10:40:00,
2013-01-02 04:45:00,46.4,38.3,30.18,NNE,12,18.0,22.8,73,0.00,,,-99.99,FreeWX 2.03,2013-01-02 10:45:00,
2013-01-02 04:50:00,46.4,37.9,30.18,NNE,16,18.0,21.5,72,0.00,,,-99.99,FreeWX 2.03,2013-01-02 10:50:00,
2013-01-02 04:55:00,46.4,38.3,30.18,NNE,12,16.0,19.0,73,0.00,,,-99.99,FreeWX 2.03,2013-01-02 10:55:00,
2013-01-02 05:00:00,46.2,38.1,30.18,NNE,18,15.0,18.6,73,0.00,,,-99.99,FreeWX 2.03,2013-01-02 11:00:00,
2013-01-02 05:05:00,46.2,38.5,30.18,NNE,28,15.0,18.1,74,0.00,,,-99.99,FreeWX 2.03,2013-01-02 11:05:00,
2013-01-02 05:10:00,46.0,38.5,30.18,NNE,33,14.0,17.2,75,0.00,,,-99.99,FreeWX 2.03,2013-01-02 11:10:00,
2013-01-02 05:15:00,46.0,38.5,30.18,NNE,14,13.0,19.0,75,0.00,,,-99.99,FreeWX 2.03,2013-01-02 11:15:00,
2013-01-02 05:20:00,46.0,38.8,30.18,NNW,348,12.0,17.2,76,0.00,,,-99.99,FreeWX 2.03,2013-01-02 11:20:00,
2013-01-02 05:25:00,45.9,38.7,30.21,North,356,12.0,17.2,76,0.00,,,-99.99,FreeWX 2.03,2013-01-02 11:25:00,
2013-01-02 05:30:00,45.7,37.2,30.21,NNE,24,15.0,22.8,72,0.00,,,-99.99,FreeWX 2.03,2013-01-02 11:30:00,
2013-01-02 05:35:00,45.5,35.6,30.21,NE,43,17.0,20.6,68,0.00,,,-99.99,FreeWX 2.03,2013-01-02 11:35:00,
2013-01-02 05:40:00,45.5,34.9,30.18,NE,47,17.0,22.8,66,0.00,,,-99.99,FreeWX 2.03,2013-01-02 11:40:00,
2013-01-02 05:45:00,45.3,34.7,30.18,NE,50,16.0,19.5,66,0.00,,,-99.99,FreeWX 2.03,2013-01-02 11:45:00,
2013-01-02 05:50:00,45.3,35.4,30.18,NE,53,14.0,17.2,68,0.00,,,-99.99,FreeWX 2.03,2013-01-02 11:50:00,
2013-01-02 05:55:00,45.3,36.1,30.18,NE,42,14.0,18.1,70,0.00,,,-99.99,FreeWX 2.03,2013-01-02 11:55:00,
2013-01-02 06:00:00,45.3,36.9,30.18,NNE,33,13.0,17.7,72,0.00,,,-99.99,FreeWX 2.03,2013-01-02 12:00:00,
2013-01-02 06:05:00,45.3,36.9,30.18,NNE,31,13.0,18.1,72,0.00,,,-99.99,FreeWX 2.03,2013-01-02 12:05:00,
2013-01-02 06:10:00,45.1,36.7,30.18,NNE,23,14.0,17.7,72,0.00,,,-99.99,FreeWX 2.03,2013-01-02 12:10:00,
2013-01-02 06:15:00,45.1,36.7,30.18,NNE,20,14.0,17.2,72,0.00,,,-99.99,FreeWX 2.03,2013-01-02 12:15:00,
2013-01-02 06:20:00,45.0,36.5,30.18,NNE,20,14.0,18.6,72,0.00,,,-99.99,FreeWX 2.03,2013-01-02 12:20:00,
2013-01-02 06:25:00,45.0,36.1,30.18,NNE,32,14.0,18.1,71,0.00,,,-99.99,FreeWX 2.03,2013-01-02 12:25:00,
2013-01-02 06:30:00,44.8,36.3,30.18,NE,39,14.0,17.7,72,0.00,,,-99.99,FreeWX 2.03,2013-01-02 12:30:00,
2013-01-02 06:35:00,44.6,35.8,30.18,NE,39,14.0,17.7,71,0.00,,,-99.99,FreeWX 2.03,2013-01-02 12:35:00,
2013-01-02 06:40:00,44.6,36.5,30.21,NNE,29,14.0,17.2,73,0.00,,,-99.99,FreeWX 2.03,2013-01-02 12:40:00,
2013-01-02 06:45:00,44.4,36.3,30.21,North,8,16.0,23.7,73,0.00,,,-99.99,FreeWX 2.03,2013-01-02 12:45:00,
2013-01-02 06:50:00,44.2,35.4,30.21,NNE,12,18.0,21.5,71,0.00,,,-99.99,FreeWX 2.03,2013-01-02 12:50:00,
2013-01-02 06:55:00,44.1,35.6,30.21,NE,34,17.0,21.9,72,0.00,,,-99.99,FreeWX 2.03,2013-01-02 12:55:00,
2013-01-02 07:00:00,44.1,36.0,30.21,NE,43,16.0,20.1,73,0.00,,,-99.99,FreeWX 2.03,2013-01-02 13:00:00,
2013-01-02 07:05:00,43.9,35.8,30.21,NNE,23,14.0,18.1,73,0.00,,,-99.99,FreeWX 2.03,2013-01-02 13:05:00,
2013-01-02 07:10:00,43.9,36.5,30.21,North,4,13.0,17.2,75,0.00,,,-99.99,FreeWX 2.03,2013-01-02 13:10:00,
2013-01-02 07:15:00,43.7,36.7,30.21,North,8,13.0,19.5,76,0.00,,,-99.99,FreeWX 2.03,2013-01-02 13:15:00,
2013-01-02 07:20:00,43.5,36.9,30.21,North,359,14.0,19.0,77,0.00,,,-99.99,FreeWX 2.03,2013-01-02 13:20:00,
2013-01-02 07:25:00,43.3,36.7,30.21,North,359,15.0,20.1,77,0.00,,,-99.99,FreeWX 2.03,2013-01-02 13:25:00,
2013-01-02 07:30:00,43.2,36.9,30.21,North,353,16.0,20.6,78,0.00,,,-99.99,FreeWX 2.03,2013-01-02 13:30:00,
2013-01-02 07:35:00,43.2,36.9,30.21,NNW,338,16.0,19.5,78,0.00,,,-99.99,FreeWX 2.03,2013-01-02 13:35:00,
2013-01-02 07:40:00,43.2,36.9,30.24,NNW,341,15.0,20.1,78,0.00,,,-99.99,FreeWX 2.03,2013-01-02 13:40:00,
2013-01-02 07:45:00,43.0,36.3,30.24,NNW,347,15.0,19.9,77,0.00,,,-99.99,FreeWX 2.03,2013-01-02 13:45:00,
2013-01-02 07:50:00,43.0,36.3,30.24,NNW,339,15.0,19.9,77,0.00,,,-99.99,FreeWX 2.03,2013-01-02 13:50:00,
2013-01-02 07:55:00,43.0,36.3,30.24,NNW,340,15.0,21.9,77,0.00,,,-99.99,FreeWX 2.03,2013-01-02 13:55:00,
2013-01-02 08:00:00,42.8,35.4,30.24,North,358,17.0,22.4,75,0.00,,,-99.99,FreeWX 2.03,2013-01-02 14:00:00,
2013-01-02 08:05:00,42.6,36.0,30.24,NNE,14,17.0,20.1,77,0.00,,,-99.99,FreeWX 2.03,2013-01-02 14:05:00,
2013-01-02 08:10:00,42.6,36.3,30.24,North,353,15.0,19.5,78,0.00,,,-99.99,FreeWX 2.03,2013-01-02 14:10:00,
2013-01-02 08:15:00,42.4,36.7,30.24,North,355,14.0,20.1,80,0.00,,,-99.99,FreeWX 2.03,2013-01-02 14:15:00,
2013-01-02 08:20:00,42.4,36.7,30.24,NNW,346,14.0,17.7,80,0.00,,,-99.99,FreeWX 2.03,2013-01-02 14:20:00,
2013-01-02 08:25:00,42.4,37.0,30.24,NNW,335,12.0,18.6,81,0.00,,,-99.99,FreeWX 2.03,2013-01-02 14:25:00,
2013-01-02 08:30:00,42.3,37.2,30.24,NNW,337,13.0,19.0,82,0.00,,,-99.99,FreeWX 2.03,2013-01-02 14:30:00,
2013-01-02 08:35:00,42.1,37.2,30.24,NNW,343,15.0,19.0,83,0.00,,,-99.99,FreeWX 2.03,2013-01-02 14:35:00,
2013-01-02 08:40:00,42.1,37.6,30.24,NNE,12,15.0,18.6,84,0.00,,,-99.99,FreeWX 2.03,2013-01-02 14:40:00,
2013-01-02 08:45:00,42.1,37.9,30.24,NNE,26,15.0,19.9,85,0.00,,,-99.99,FreeWX 2.03,2013-01-02 14:45:00,
2013-01-02 08:50:00,41.9,37.8,30.24,NNE,22,14.0,17.2,85,0.00,,,-99.99,FreeWX 2.03,2013-01-02 14:50:00,
2013-01-02 08:55:00,41.9,37.8,30.24,North,11,13.0,17.7,85,0.00,,,-99.99,FreeWX 2.03,2013-01-02 14:55:00,
2013-01-02 09:00:00,41.7,37.6,30.24,NNE,18,14.0,17.2,85,0.00,,,-99.99,FreeWX 2.03,2013-01-02 15:00:00,
2013-01-02 09:05:00,41.7,37.6,30.24,NNE,26,14.0,17.7,85,0.00,,,-99.99,FreeWX 2.03,2013-01-02 15:05:00,
2013-01-02 09:10:00,41.5,37.6,30.27,NNE,22,14.0,18.1,86,0.00,,,-99.99,FreeWX 2.03,2013-01-02 15:10:00,
2013-01-02 09:15:00,41.5,37.6,30.27,NNE,18,14.0,17.7,86,0.00,,,-99.99,FreeWX 2.03,2013-01-02 15:15:00,
2013-01-02 09:20:00,41.4,37.6,30.27,NNE,22,13.0,15.9,86,0.00,,,-99.99,FreeWX 2.03,2013-01-02 15:20:00,
2013-01-02 09:25:00,41.4,37.8,30.27,North,11,12.0,15.9,87,0.00,,,-99.99,FreeWX 2.03,2013-01-02 15:25:00,
2013-01-02 09:30:00,41.4,37.8,30.27,North,354,12.0,17.7,87,0.00,,,-99.99,FreeWX 2.03,2013-01-02 15:30:00,
2013-01-02 09:35:00,41.4,37.8,30.27,NNW,346,13.0,16.8,87,0.00,,,-99.99,FreeWX 2.03,2013-01-02 15:35:00,
2013-01-02 09:40:00,41.4,38.1,30.27,NNW,340,13.0,18.6,88,0.00,,,-99.99,FreeWX 2.03,2013-01-02 15:40:00,
2013-01-02 09:45:00,41.2,37.9,30.27,NNW,339,14.0,19.0,88,0.00,,,-99.99,FreeWX 2.03,2013-01-02 15:45:00,
2013-01-02 09:50:00,41.2,37.9,30.27,NNW,341,14.0,18.6,88,0.04,,,-99.99,FreeWX 2.03,2013-01-02 15:50:00,
2013-01-02 09:55:00,41.2,38.1,30.27,NNW,342,13.0,14.3,89,0.04,,,-99.99,FreeWX 2.03,2013-01-02 15:55:00,
2013-01-02 10:00:00,41.2,38.1,30.27,NNW,348,11.0,16.3,89,0.04,,,-99.99,FreeWX 2.03,2013-01-02 16:00:00,
2013-01-02 10:05:00,41.2,38.5,30.27,North,355,11.0,15.9,90,0.04,,,-99.99,FreeWX 2.03,2013-01-02 16:05:00,
2013-01-02 10:10:00,41.2,38.5,30.27,NNW,346,12.0,16.3,90,0.04,,,-99.99,FreeWX 2.03,2013-01-02 16:10:00,
2013-01-02 10:15:00,41.0,38.7,30.27,NNW,344,12.0,15.4,91,0.04,,,-99.99,FreeWX 2.03,2013-01-02 16:15:00,
2013-01-02 10:20:00,41.0,38.7,30.27,NNW,340,11.0,15.4,91,0.04,,,-99.99,FreeWX 2.03,2013-01-02 16:20:00,
2013-01-02 10:25:00,41.2,39.0,30.27,NNW,340,11.0,16.3,92,0.04,,,-99.99,FreeWX 2.03,2013-01-02 16:25:00,
2013-01-02 10:30:00,41.0,38.8,30.27,NNW,343,12.0,16.3,92,0.04,,,-99.99,FreeWX 2.03,2013-01-02 16:30:00,
2013-01-02 10:35:00,41.0,38.8,30.27,NNW,342,12.0,15.9,92,0.04,,,-99.99,FreeWX 2.03,2013-01-02 16:35:00,
2013-01-02 10:40:00,41.0,39.2,30.27,NNW,343,11.0,16.3,93,0.04,,,-99.99,FreeWX 2.03,2013-01-02 16:40:00,
2013-01-02 10:45:00,41.2,39.4,30.27,NNW,340,11.0,16.8,93,0.04,,,-99.99,FreeWX 2.03,2013-01-02 16:45:00,
2013-01-02 10:50:00,41.0,39.2,30.27,NNW,340,10.0,15.4,93,0.00,,,-99.99,FreeWX 2.03,2013-01-02 16:50:00,
2013-01-02 10:55:00,41.0,39.4,30.27,North,351,10.0,14.3,94,0.00,,,-99.99,FreeWX 2.03,2013-01-02 16:55:00,
2013-01-02 11:00:00,40.8,39.2,30.27,North,5,11.0,15.4,94,0.00,,,-99.99,FreeWX 2.03,2013-01-02 17:00:00,
2013-01-02 11:05:00,40.8,39.2,30.27,North,8,11.0,15.2,94,0.00,,,-99.99,FreeWX 2.03,2013-01-02 17:05:00,
2013-01-02 11:10:00,40.8,39.6,30.27,NNE,16,12.0,14.8,95,0.00,,,-99.99,FreeWX 2.03,2013-01-02 17:10:00,
2013-01-02 11:15:00,40.8,39.7,30.27,NNE,17,12.0,16.8,96,0.00,,,-99.99,FreeWX 2.03,2013-01-02 17:15:00,
2013-01-02 11:20:00,40.8,39.7,30.27,NNE,14,13.0,16.3,96,0.00,,,-99.99,FreeWX 2.03,2013-01-02 17:20:00,
2013-01-02 11:25:00,40.8,39.7,30.27,NNE,24,13.0,17.2,96,0.00,,,-99.99,FreeWX 2.03,2013-01-02 17:25:00,
2013-01-02 11:30:00,40.6,39.6,30.27,NNE,20,12.0,14.8,96,0.00,,,-99.99,FreeWX 2.03,2013-01-02 17:30:00,
2013-01-02 11:35:00,40.8,39.7,30.27,NNE,23,11.0,13.9,96,0.00,,,-99.99,FreeWX 2.03,2013-01-02 17:35:00,
2013-01-02 11:40:00,40.6,39.9,30.27,NNE,23,11.0,14.8,97,0.00,,,-99.99,FreeWX 2.03,2013-01-02 17:40:00,
2013-01-02 11:45:00,40.8,39.7,30.27,North,9,10.0,13.0,96,0.00,,,-99.99,FreeWX 2.03,2013-01-02 17:45:00,
2013-01-02 11:51:00,40.8,40.1,30.27,North,357,9.0,13.9,97,0.00,,,-99.99,FreeWX 2.03,2013-01-02 17:51:00,
2013-01-02 11:56:00,40.8,40.1,30.27,NNW,344,9.0,13.0,97,0.00,,,-99.99,FreeWX 2.03,2013-01-02 17:56:00,
2013-01-02 12:01:00,41.0,40.3,30.27,NNW,343,9.0,13.0,97,0.00,,,-99.99,FreeWX 2.03,2013-01-02 18:01:00,
2013-01-02 12:06:00,41.0,40.3,30.27,North,353,9.0,12.1,97,0.00,,,-99.99,FreeWX 2.03,2013-01-02 18:06:00,
2013-01-02 12:11:00,41.2,40.5,30.27,North,0,9.0,12.5,97,0.00,,,-99.99,FreeWX 2.03,2013-01-02 18:11:00,
2013-01-02 12:16:00,41.2,40.5,30.27,North,2,8.0,11.0,97,0.00,,,-99.99,FreeWX 2.03,2013-01-02 18:16:00,
2013-01-02 12:21:00,41.4,40.6,30.27,North,1,8.0,12.1,97,0.00,,,-99.99,FreeWX 2.03,2013-01-02 18:21:00,
2013-01-02 12:26:00,41.4,40.6,30.24,North,356,9.0,11.6,97,0.00,,,-99.99,FreeWX 2.03,2013-01-02 18:26:00,
2013-01-02 12:31:00,41.5,40.8,30.24,NNW,346,8.0,12.1,97,0.00,,,-99.99,FreeWX 2.03,2013-01-02 18:31:00,
2013-01-02 12:36:00,41.5,40.8,30.24,NNW,340,8.0,11.6,97,0.00,,,-99.99,FreeWX 2.03,2013-01-02 18:36:00,
2013-01-02 12:41:00,41.5,41.0,30.24,NNW,341,9.0,13.4,98,0.00,,,-99.99,FreeWX 2.03,2013-01-02 18:41:00,
2013-01-02 12:46:00,41.7,41.2,30.24,NNW,340,9.0,12.5,98,0.00,,,-99.99,FreeWX 2.03,2013-01-02 18:46:00,
2013-01-02 12:51:00,41.7,41.2,30.24,NNW,336,8.0,12.1,98,0.04,,,-99.99,FreeWX 2.03,2013-01-02 18:51:00,
2013-01-02 12:56:00,41.7,41.2,30.24,NNW,332,8.0,11.6,98,0.04,,,-99.99,FreeWX 2.03,2013-01-02 18:56:00,
2013-01-02 13:01:00,41.7,41.2,30.24,NNW,330,9.0,13.9,98,0.04,,,-99.99,FreeWX 2.03,2013-01-02 19:01:00,
2013-01-02 13:06:00,41.5,41.4,30.24,NNW,331,9.0,14.3,99,0.04,,,-99.99,FreeWX 2.03,2013-01-02 19:06:00,
2013-01-02 13:11:00,41.5,41.4,30.24,NNW,332,10.0,15.2,99,0.04,,,-99.99,FreeWX 2.03,2013-01-02 19:11:00,
2013-01-02 13:16:00,41.5,41.4,30.24,NNW,330,10.0,16.3,99,0.04,,,-99.99,FreeWX 2.03,2013-01-02 19:16:00,
2013-01-02 13:21:00,41.5,41.4,30.24,NNW,332,11.0,16.8,99,0.04,,,-99.99,FreeWX 2.03,2013-01-02 19:21:00,
2013-01-02 13:26:00,41.5,41.4,30.24,NNW,334,11.0,14.8,99,0.04,,,-99.99,FreeWX 2.03,2013-01-02 19:26:00,
2013-01-02 13:31:00,41.7,41.7,30.24,NNW,334,11.0,18.6,100,0.04,,,-99.99,FreeWX 2.03,2013-01-02 19:31:00,
2013-01-02 13:36:00,41.7,41.7,30.24,NNW,330,12.0,17.7,100,0.04,,,-99.99,FreeWX 2.03,2013-01-02 19:36:00,
2013-01-02 13:41:00,41.5,41.5,30.21,NNW,331,12.0,16.3,100,0.04,,,-99.99,FreeWX 2.03,2013-01-02 19:41:00,
2013-01-02 13:46:00,41.4,41.4,30.21,NNW,331,13.0,18.1,100,0.04,,,-99.99,FreeWX 2.03,2013-01-02 19:46:00,
2013-01-02 13:51:00,41.4,41.4,30.21,NNW,331,13.0,18.6,100,0.00,,,-99.99,FreeWX 2.03,2013-01-02 19:51:00,
2013-01-02 13:56:00,41.2,41.2,30.21,NNW,334,12.0,18.6,100,0.00,,,-99.99,FreeWX 2.03,2013-01-02 19:56:00,
2013-01-02 14:01:00,41.2,41.2,30.21,NNW,334,12.0,17.2,100,0.00,,,-99.99,FreeWX 2.03,2013-01-02 20:01:00,
2013-01-02 14:06:00,41.2,41.2,30.21,NNW,334,11.0,15.2,100,0.00,,,-99.99,FreeWX 2.03,2013-01-02 20:06:00,
2013-01-02 14:11:00,41.2,41.2,30.21,NNW,340,11.0,16.3,100,0.00,,,-99.99,FreeWX 2.03,2013-01-02 20:11:00,
2013-01-02 14:16:00,41.2,41.2,30.21,NNW,342,11.0,15.2,100,0.00,,,-99.99,FreeWX 2.03,2013-01-02 20:16:00,
2013-01-02 14:21:00,41.2,41.2,30.21,NNW,336,11.0,15.2,100,0.00,,,-99.99,FreeWX 2.03,2013-01-02 20:21:00,
2013-01-02 14:26:00,41.4,41.4,30.21,NNW,339,11.0,16.3,100,0.00,,,-99.99,FreeWX 2.03,2013-01-02 20:26:00,
2013-01-02 14:31:00,41.4,41.4,30.21,NNW,343,12.0,16.3,100,0.00,,,-99.99,FreeWX 2.03,2013-01-02 20:31:00,
2013-01-02 14:36:00,41.4,41.4,30.21,NNW,346,12.0,15.4,100,0.00,,,-99.99,FreeWX 2.03,2013-01-02 20:36:00,
2013-01-02 14:41:00,41.4,41.4,30.21,NNW,343,11.0,15.2,100,0.00,,,-99.99,FreeWX 2.03,2013-01-02 20:41:00,
2013-01-02 14:46:00,41.4,41.4,30.21,North,349,12.0,17.7,100,0.00,,,-99.99,FreeWX 2.03,2013-01-02 20:46:00,
2013-01-02 14:51:00,41.4,41.4,30.21,North,354,12.0,16.3,100,0.00,,,-99.99,FreeWX 2.03,2013-01-02 20:51:00,
2013-01-02 14:56:00,41.4,41.4,30.18,North,353,11.0,15.4,100,0.04,,,-99.99,FreeWX 2.03,2013-01-02 20:56:00,
2013-01-02 15:01:00,41.4,41.4,30.18,North,352,11.0,16.8,100,0.04,,,-99.99,FreeWX 2.03,2013-01-02 21:01:00,
2013-01-02 15:06:00,41.4,41.4,30.18,North,356,12.0,15.9,100,0.04,,,-99.99,FreeWX 2.03,2013-01-02 21:06:00,
2013-01-02 15:11:00,41.4,41.4,30.18,North,10,13.0,16.3,100,0.04,,,-99.99,FreeWX 2.03,2013-01-02 21:11:00,
2013-01-02 15:16:00,41.2,41.2,30.18,NNE,14,13.0,16.3,100,0.04,,,-99.99,FreeWX 2.03,2013-01-02 21:16:00,
2013-01-02 15:21:00,41.2,41.2,30.18,NNE,12,13.0,16.3,100,0.04,,,-99.99,FreeWX 2.03,2013-01-02 21:21:00,
2013-01-02 15:26:00,41.4,41.4,30.21,North,357,12.0,15.4,100,0.04,,,-99.99,FreeWX 2.03,2013-01-02 21:26:00,
2013-01-02 15:31:00,41.4,41.4,30.21,North,349,11.0,15.4,100,0.04,,,-99.99,FreeWX 2.03,2013-01-02 21:31:00,
2013-01-02 15:36:00,41.5,41.5,30.21,North,350,12.0,16.3,100,0.04,,,-99.99,FreeWX 2.03,2013-01-02 21:36:00,
2013-01-02 15:41:00,41.5,41.5,30.21,North,354,11.0,15.9,100,0.04,,,-99.99,FreeWX 2.03,2013-01-02 21:41:00,
2013-01-02 15:46:00,41.5,41.5,30.21,North,359,12.0,16.3,100,0.04,,,-99.99,FreeWX 2.03,2013-01-02 21:46:00,
2013-01-02 15:51:00,41.4,41.4,30.21,North,9,12.0,15.9,100,0.00,,,-99.99,FreeWX 2.03,2013-01-02 21:51:00,
2013-01-02 15:56:00,41.4,41.4,30.18,NNE,17,13.0,16.8,100,0.00,,,-99.99,FreeWX 2.03,2013-01-02 21:56:00,
2013-01-02 16:01:00,41.4,41.4,30.18,NNE,19,14.0,17.7,100,0.00,,,-99.99,FreeWX 2.03,2013-01-02 22:01:00,
2013-01-02 16:06:00,41.4,41.4,30.18,NNE,14,14.0,19.5,100,0.00,,,-99.99,FreeWX 2.03,2013-01-02 22:06:00,
2013-01-02 16:11:00,41.4,41.4,30.18,NNE,13,15.0,18.1,100,0.00,,,-99.99,FreeWX 2.03,2013-01-02 22:11:00,
2013-01-02 16:16:00,41.2,41.2,30.18,NNE,12,15.0,18.6,100,0.00,,,-99.99,FreeWX 2.03,2013-01-02 22:16:00,
2013-01-02 16:21:00,41.2,41.2,30.18,North,3,15.0,19.0,100,0.04,,,-99.99,FreeWX 2.03,2013-01-02 22:21:00,
2013-01-02 16:26:00,41.4,41.4,30.21,North,355,15.0,20.6,100,0.04,,,-99.99,FreeWX 2.03,2013-01-02 22:26:00,
2013-01-02 16:31:00,41.2,41.2,30.21,North,356,15.0,19.0,100,0.04,,,-99.99,FreeWX 2.03,2013-01-02 22:31:00,
2013-01-02 16:36:00,41.4,41.4,30.21,North,354,15.0,19.0,100,0.04,,,-99.99,FreeWX 2.03,2013-01-02 22:36:00,
2013-01-02 16:41:00,41.4,41.4,30.21,NNW,348,14.0,17.7,100,0.04,,,-99.99,FreeWX 2.03,2013-01-02 22:41:00,
2013-01-02 16:46:00,41.4,41.4,30.21,North,350,14.0,18.6,100,0.04,,,-99.99,FreeWX 2.03,2013-01-02 22:46:00,
2013-01-02 16:51:00,41.4,41.4,30.21,North,355,14.0,16.8,100,0.04,,,-99.99,FreeWX 2.03,2013-01-02 22:51:00,
2013-01-02 16:56:00,41.4,41.4,30.21,North,351,12.0,15.9,100,0.04,,,-99.99,FreeWX 2.03,2013-01-02 22:56:00,
2013-01-02 17:01:00,41.4,41.4,30.21,NNW,345,12.0,17.7,100,0.04,,,-99.99,FreeWX 2.03,2013-01-02 23:01:00,
2013-01-02 17:06:00,41.2,41.2,30.21,NNW,343,13.0,17.2,100,0.04,,,-99.99,FreeWX 2.03,2013-01-02 23:06:00,
2013-01-02 17:11:00,41.2,41.2,30.21,NNW,345,13.0,17.7,100,0.04,,,-99.99,FreeWX 2.03,2013-01-02 23:11:00,
2013-01-02 17:16:00,41.2,41.2,30.21,NNW,344,12.0,18.1,100,0.04,,,-99.99,FreeWX 2.03,2013-01-02 23:16:00,
2013-01-02 17:21:00,41.2,41.2,30.21,NNW,346,12.0,16.3,100,0.00,,,-99.99,FreeWX 2.03,2013-01-02 23:21:00,
2013-01-02 17:26:00,41.2,41.2,30.21,North,352,13.0,19.5,100,0.00,,,-99.99,FreeWX 2.03,2013-01-02 23:26:00,
2013-01-02 17:31:00,41.2,41.2,30.21,NNW,346,13.0,18.1,100,0.00,,,-99.99,FreeWX 2.03,2013-01-02 23:31:00,
2013-01-02 17:36:00,41.2,41.2,30.21,NNW,341,12.0,16.8,100,0.00,,,-99.99,FreeWX 2.03,2013-01-02 23:36:00,
2013-01-02 17:41:00,41.0,41.0,30.24,NNW,347,12.0,16.3,100,0.00,,,-99.99,FreeWX 2.03,2013-01-02 23:41:00,
2013-01-02 17:46:00,40.8,40.8,30.24,North,354,12.0,15.9,100,0.00,,,-99.99,FreeWX 2.03,2013-01-02 23:46:00,
2013-01-02 17:51:00,40.8,40.8,30.24,North,1,12.0,15.2,100,0.00,,,-99.99,FreeWX 2.03,2013-01-02 23:51:00,
2013-01-02 17:56:00,41.0,41.0,30.24,North,7,11.0,13.9,100,0.00,,,-99.99,FreeWX 2.03,2013-01-02 23:56:00,
2013-01-02 18:01:00,41.0,41.0,30.24,North,11,10.0,15.2,100,0.00,,,-99.99,FreeWX 2.03,2013-01-03 00:01:00,
2013-01-02 18:06:00,41.0,41.0,30.24,NNE,12,11.0,13.9,100,0.00,,,-99.99,FreeWX 2.03,2013-01-03 00:06:00,
2013-01-02 18:11:00,40.8,40.8,30.24,North,10,11.0,14.3,100,0.00,,,-99.99,FreeWX 2.03,2013-01-03 00:11:00,
2013-01-02 18:16:00,40.8,40.8,30.24,NNE,12,12.0,15.4,100,0.04,,,-99.99,FreeWX 2.03,2013-01-03 00:16:00,
2013-01-02 18:21:00,40.8,40.8,30.24,North,10,13.0,16.3,100,0.04,,,-99.99,FreeWX 2.03,2013-01-03 00:21:00,
2013-01-02 18:26:00,40.8,40.8,30.24,North,0,12.0,15.2,100,0.04,,,-99.99,FreeWX 2.03,2013-01-03 00:26:00,
2013-01-02 18:31:00,41.0,41.0,30.24,North,353,10.0,14.3,100,0.04,,,-99.99,FreeWX 2.03,2013-01-03 00:31:00,
2013-01-02 18:36:00,41.0,41.0,30.24,North,349,12.0,16.8,100,0.04,,,-99.99,FreeWX 2.03,2013-01-03 00:36:00,
2013-01-02 18:41:00,41.0,41.0,30.24,NNW,344,12.0,14.8,100,0.04,,,-99.99,FreeWX 2.03,2013-01-03 00:41:00,
2013-01-02 18:46:00,41.2,41.2,30.24,NNW,342,11.0,15.9,100,0.04,,,-99.99,FreeWX 2.03,2013-01-03 00:46:00,
2013-01-02 18:51:00,41.0,41.0,30.24,NNW,345,12.0,16.8,100,0.04,,,-99.99,FreeWX 2.03,2013-01-03 00:51:00,
2013-01-02 18:56:00,41.0,41.0,30.27,NNW,348,12.0,16.3,100,0.04,,,-99.99,FreeWX 2.03,2013-01-03 00:56:00,
2013-01-02 19:01:00,41.0,41.0,30.27,North,351,12.0,16.3,100,0.04,,,-99.99,FreeWX 2.03,2013-01-03 01:01:00,
2013-01-02 19:06:00,40.8,40.8,30.27,North,352,12.0,15.2,100,0.04,,,-99.99,FreeWX 2.03,2013-01-03 01:06:00,
2013-01-02 19:11:00,40.8,40.8,30.24,North,357,11.0,13.9,100,0.00,,,-99.99,FreeWX 2.03,2013-01-03 01:11:00,
2013-01-02 19:16:00,40.8,40.8,30.24,North,3,11.0,15.4,100,0.00,,,-99.99,FreeWX 2.03,2013-01-03 01:16:00,
2013-01-02 19:21:00,40.8,40.8,30.24,North,2,12.0,15.2,100,0.04,,,-99.99,FreeWX 2.03,2013-01-03 01:21:00,
2013-01-02 19:26:00,40.8,40.8,30.24,North,0,11.0,15.2,100,0.04,,,-99.99,FreeWX 2.03,2013-01-03 01:26:00,
2013-01-02 19:31:00,40.8,40.8,30.24,North,354,12.0,15.4,100,0.04,,,-99.99,FreeWX 2.03,2013-01-03 01:31:00,
2013-01-02 19:36:00,40.8,40.8,30.24,North,351,12.0,15.2,100,0.04,,,-99.99,FreeWX 2.03,2013-01-03 01:36:00,
2013-01-02 19:41:00,40.8,40.8,30.24,North,6,12.0,15.4,100,0.04,,,-99.99,FreeWX 2.03,2013-01-03 01:41:00,
2013-01-02 19:46:00,40.6,40.6,30.24,NNE,17,13.0,16.3,100,0.04,,,-99.99,FreeWX 2.03,2013-01-03 01:46:00,
2013-01-02 19:51:00,40.6,40.6,30.24,NNE,15,13.0,15.4,100,0.04,,,-99.99,FreeWX 2.03,2013-01-03 01:51:00,
2013-01-02 19:56:00,40.6,40.6,30.24,NNE,18,11.0,13.9,100,0.04,,,-99.99,FreeWX 2.03,2013-01-03 01:56:00,
2013-01-02 20:01:00,40.8,40.8,30.24,NNE,13,11.0,14.3,100,0.04,,,-99.99,FreeWX 2.03,2013-01-03 02:01:00,
2013-01-02 20:06:00,40.8,40.8,30.24,NNE,13,11.0,13.9,100,0.04,,,-99.99,FreeWX 2.03,2013-01-03 02:06:00,
2013-01-02 20:11:00,40.8,40.8,30.24,NNE,16,11.0,14.8,100,0.04,,,-99.99,FreeWX 2.03,2013-01-03 02:11:00,
2013-01-02 20:16:00,41.0,41.0,30.24,North,11,11.0,12.1,100,0.04,,,-99.99,FreeWX 2.03,2013-01-03 02:16:00,
2013-01-02 20:21:00,41.2,41.2,30.24,North,358,10.0,14.8,100,0.04,,,-99.99,FreeWX 2.03,2013-01-03 02:21:00,
2013-01-02 20:27:00,41.2,41.2,30.27,NNW,348,10.0,15.2,100,0.04,,,-99.99,FreeWX 2.03,2013-01-03 02:27:00,
2013-01-02 20:32:00,41.0,41.0,30.27,North,351,11.0,16.3,100,0.04,,,-99.99,FreeWX 2.03,2013-01-03 02:32:00,
2013-01-02 20:37:00,41.0,41.0,30.27,North,356,12.0,15.9,100,0.04,,,-99.99,FreeWX 2.03,2013-01-03 02:37:00,
2013-01-02 20:42:00,40.8,40.8,30.27,North,356,12.0,16.8,100,0.04,,,-99.99,FreeWX 2.03,2013-01-03 02:42:00,
2013-01-02 20:47:00,40.8,40.8,30.27,North,357,13.0,16.3,100,0.04,,,-99.99,FreeWX 2.03,2013-01-03 02:47:00,
2013-01-02 20:52:00,40.8,40.8,30.27,North,11,13.0,15.9,100,0.04,,,-99.99,FreeWX 2.03,2013-01-03 02:52:00,
2013-01-02 20:57:00,40.8,40.8,30.27,NNE,26,11.0,12.5,100,0.04,,,-99.99,FreeWX 2.03,2013-01-03 02:57:00,
2013-01-02 21:02:00,40.8,40.8,30.27,NE,42,10.0,12.5,100,0.04,,,-99.99,FreeWX 2.03,2013-01-03 03:02:00,
2013-01-02 21:07:00,40.8,40.8,30.27,NE,49,9.0,14.3,100,0.04,,,-99.99,FreeWX 2.03,2013-01-03 03:07:00,
2013-01-02 21:12:00,40.8,40.8,30.24,NE,38,10.0,13.9,100,0.04,,,-99.99,FreeWX 2.03,2013-01-03 03:12:00,
2013-01-02 21:17:00,40.8,40.8,30.24,NNE,25,11.0,14.3,100,0.04,,,-99.99,FreeWX 2.03,2013-01-03 03:17:00,
2013-01-02 21:22:00,41.0,41.0,30.24,NNE,20,11.0,13.9,100,0.00,,,-99.99,FreeWX 2.03,2013-01-03 03:22:00,
2013-01-02 21:27:00,41.2,41.2,30.27,NNE,18,12.0,14.8,100,0.00,,,-99.99,FreeWX 2.03,2013-01-03 03:27:00,
2013-01-02 21:32:00,41.4,41.4,30.27,NNE,28,11.0,14.8,100,0.00,,,-99.99,FreeWX 2.03,2013-01-03 03:32:00,
2013-01-02 21:37:00,41.4,41.4,30.27,NE,34,11.0,13.4,100,0.00,,,-99.99,FreeWX 2.03,2013-01-03 03:37:00,
2013-01-02 21:47:00,41.5,41.4,30.27,NNE,21,12.0,15.9,99,0.00,,,-99.99,FreeWX 2.03,2013-01-03 03:47:00,
2013-01-02 21:52:00,41.7,41.5,30.27,NNE,18,13.0,16.3,99,0.00,,,-99.99,FreeWX 2.03,2013-01-03 03:52:00,
2013-01-02 21:57:00,41.7,41.2,30.27,NNE,16,13.0,15.2,98,0.00,,,-99.99,FreeWX 2.03,2013-01-03 03:57:00,
2013-01-02 22:02:00,41.7,41.2,30.27,North,4,12.0,15.4,98,0.00,,,-99.99,FreeWX 2.03,2013-01-03 04:02:00,
2013-01-02 22:07:00,41.7,41.2,30.27,North,356,12.0,14.8,98,0.00,,,-99.99,FreeWX 2.03,2013-01-03 04:07:00,
2013-01-02 22:12:00,41.5,41.0,30.27,North,358,12.0,16.8,98,0.00,,,-99.99,FreeWX 2.03,2013-01-03 04:12:00,
2013-01-02 22:17:00,41.5,40.8,30.27,North,356,13.0,18.1,97,0.00,,,-99.99,FreeWX 2.03,2013-01-03 04:17:00,
2013-01-02 22:22:00,41.5,40.8,30.27,North,357,14.0,18.6,97,0.00,,,-99.99,FreeWX 2.03,2013-01-03 04:22:00,
2013-01-02 22:27:00,41.5,40.5,30.27,North,3,14.0,16.8,96,0.00,,,-99.99,FreeWX 2.03,2013-01-03 04:27:00,
2013-01-02 22:32:00,41.5,40.5,30.27,North,356,13.0,17.7,96,0.00,,,-99.99,FreeWX 2.03,2013-01-03 04:32:00,
2013-01-02 22:37:00,41.5,40.3,30.27,North,350,13.0,17.7,95,0.00,,,-99.99,FreeWX 2.03,2013-01-03 04:37:00,
2013-01-02 22:42:00,41.5,40.3,30.27,North,355,12.0,15.4,95,0.00,,,-99.99,FreeWX 2.03,2013-01-03 04:42:00,
2013-01-02 22:47:00,41.7,40.5,30.27,North,358,12.0,15.9,95,0.00,,,-99.99,FreeWX 2.03,2013-01-03 04:47:00,
2013-01-02 22:52:00,41.7,40.5,30.27,North,355,12.0,17.7,95,0.00,,,-99.99,FreeWX 2.03,2013-01-03 04:52:00,
2013-01-02 22:57:00,41.7,40.5,30.27,NNW,348,12.0,15.2,95,0.00,,,-99.99,FreeWX 2.03,2013-01-03 04:57:00,
2013-01-02 23:08:00,41.7,40.1,30.27,North,349,11.0,15.9,94,0.00,,,-99.99,FreeWX 2.03,2013-01-03 05:08:00,
2013-01-02 23:13:00,41.9,40.3,30.27,North,350,11.0,15.2,94,0.00,,,-99.99,FreeWX 2.03,2013-01-03 05:13:00,
2013-01-02 23:18:00,41.9,40.3,30.27,North,354,11.0,15.4,94,0.00,,,-99.99,FreeWX 2.03,2013-01-03 05:18:00,
2013-01-02 23:23:00,41.9,40.3,30.27,North,356,11.0,19.0,94,0.00,,,-99.99,FreeWX 2.03,2013-01-03 05:23:00,
2013-01-02 23:28:00,41.9,40.1,30.27,North,357,12.0,16.3,93,0.00,,,-99.99,FreeWX 2.03,2013-01-03 05:28:00,
2013-01-02 23:33:00,41.9,39.7,30.27,North,353,12.0,15.4,92,0.00,,,-99.99,FreeWX 2.03,2013-01-03 05:33:00,
2013-01-02 23:38:00,41.9,39.7,30.27,North,353,12.0,16.3,92,0.00,,,-99.99,FreeWX 2.03,2013-01-03 05:38:00,
2013-01-02 23:43:00,41.9,39.4,30.27,North,5,13.0,17.2,91,0.00,,,-99.99,FreeWX 2.03,2013-01-03 05:43:00,
2013-01-02 23:48:00,41.9,39.2,30.27,NNE,14,13.0,15.9,90,0.00,,,-99.99,FreeWX 2.03,2013-01-03 05:48:00,
2013-01-02 23:53:00,41.9,38.7,30.27,NNE,19,13.0,17.7,88,0.00,,,-99.99,FreeWX 2.03,2013-01-03 05:53:00,
2013-01-02 23:58:00,41.9,38.3,30.27,NNE,17,14.0,18.6,87,0.00,,,-99.99,FreeWX 2.03,2013-01-03 05:58:00,